TimeCDT,TemperatureF,Dew PointF,Humidity,Sea Level PressureIn,VisibilityMPH,Wind Direction,Wind SpeedMPH,Gust SpeedMPH,PrecipitationIn,Events,Conditions,WindDirDegrees,DateUTC
12:53 AM,75.9,71.1,85,30.11,9.0,SSE,9.2,-,N/A,,Partly Cloudy,150,2012-10-14 05:53:00
1:53 AM,77.0,69.1,76,30.09,10.0,SSE,11.5,-,N/A,,Clear,150,2012-10-14 06:53:00
2:53 AM,75.9,69.1,79,30.07,10.0,SSE,9.2,-,N/A,,Clear,150,2012-10-14 07:53:00
3:53 AM,75.9,66.9,74,30.06,10.0,SSE,11.5,-,N/A,,Clear,150,2012-10-14 08:53:00
4:53 AM,77.0,68.0,74,30.06,10.0,SSE,12.7,-,N/A,,Clear,150,2012-10-14 09:53:00
5:53 AM,77.0,69.1,76,30.06,10.0,SSE,9.2,-,N/A,,Scattered Clouds,150,2012-10-14 10:53:00
6:53 AM,75.9,69.1,79,30.07,10.0,South,5.8,-,N/A,,Scattered Clouds,180,2012-10-14 11:53:00
7:53 AM,77.0,70.0,79,30.09,10.0,South,4.6,-,N/A,,Clear,170,2012-10-14 12:53:00
8:53 AM,79.0,70.0,74,30.13,10.0,South,4.6,-,N/A,,Clear,190,2012-10-14 13:53:00
9:53 AM,81.0,69.1,67,30.14,10.0,SSW,5.8,-,N/A,,Partly Cloudy,200,2012-10-14 14:53:00
10:53 AM,82.0,68.0,62,30.14,10.0,SSW,6.9,-,N/A,,Scattered Clouds,210,2012-10-14 15:53:00
11:53 AM,82.9,68.0,60,30.14,10.0,SSE,6.9,-,N/A,,Clear,160,2012-10-14 16:53:00
12:53 PM,84.0,66.9,56,30.11,10.0,South,5.8,-,N/A,,Partly Cloudy,180,2012-10-14 17:53:00
1:53 PM,84.0,66.9,56,30.07,10.0,South,5.8,-,N/A,,Scattered Clouds,190,2012-10-14 18:53:00
2:53 PM,84.2,69.8,62,30.03,10.0,South,9.2,-,N/A,,Scattered Clouds,170,2012-10-14 19:53:00
3:53 PM,82.9,69.1,63,30.00,10.0,SSE,11.5,-,N/A,,Clear,150,2012-10-14 20:53:00
4:53 PM,81.0,69.1,67,30.00,10.0,South,6.9,-,N/A,,Clear,180,2012-10-14 21:53:00
5:53 PM,80.1,69.1,69,30.00,10.0,South,5.8,-,N/A,,Clear,170,2012-10-14 22:53:00
6:53 PM,77.0,71.1,82,30.01,10.0,Calm,Calm,-,N/A,,Clear,0,2012-10-14 23:53:00
7:53 PM,77.0,71.1,82,30.02,10.0,SSE,3.5,-,N/A,,Clear,160,2012-10-15 00:53:00
8:53 PM,77.0,71.1,82,30.01,10.0,South,5.8,-,N/A,,Clear,170,2012-10-15 01:53:00
9:53 PM,75.9,71.1,85,30.01,10.0,South,4.6,-,N/A,,Clear,180,2012-10-15 02:53:00
10:53 PM,75.9,72.0,87,30.01,10.0,South,3.5,-,N/A,,Clear,190,2012-10-15 03:53:00
11:53 PM,75.9,72.0,87,30.00,10.0,SSW,3.5,-,N/A,,Clear,200,2012-10-15 04:53:00